Regional Weather Roundup
Issued by NWS

Home | Current Version | Previous Version | Text Only | Print | Product List | Glossary On
Versions: 1 2 3 4 5 6 7 8 9 10 11 12 13 14 15 16 17 18 19 20 21 22 23 24 25 26 27 28 29 30 31 32 33 34 35 36 37 38 39 40 41 42 43 44 45 46 47 48 49 50
397
ASUS43 KDTX 030810
RWRMI
MICHIGAN HOURLY REGIONAL WEATHER ROUNDUP
NATIONAL WEATHER SERVICE DETROIT/PONTIAC MI
ISSUED BY NATIONAL WEATHER SERVICE GRAND RAPIDS MI
300 AM EST SAT DEC 03 2016

NOTE: "FAIR" INDICATES FEW OR NO CLOUDS BELOW 12,000 FEET WITH NO
SIGNIFICANT WEATHER AND/OR OBSTRUCTION TO VISIBILITY.

MIZ047>049-052>055-059>063-066>070-074>076-081>083-030900-
SOUTHEAST LOWER MICHIGAN

CITY           SKY/WX    TMP DP  RH WIND       PRES   REMARKS
ALMA           CLOUDY    34  30  85 W7        30.26S WCI  28
BAD AXE        CLOUDY    36  33  90 W9        30.21R WCI  29
GROSSE ILE     MOCLDY    33  28  81 W3        30.26R
HILLSDALE      CLOUDY    32  30  93 W5        30.25S WCI  27
HOWELL         PTCLDY    32  28  84 W6        30.24R WCI  26

CITY           SKY/WX    TMP DP  RH WIND       PRES   REMARKS
MASON          CLOUDY    34  30  85 W5        30.26R WCI  30
MONROE         PTCLDY    32  29  88 W6        30.27R WCI  27
MT. CLEMENS    CLOUDY    36  30  77 W10       30.22R WCI  29
PORT HOPE        N/A     40  34  79 W9        30.18R WCI  34
PORT HURON     CLOUDY    36  32  87 W6        30.22S WCI  31
$$
MIZ043>046-050>051-056>058-064>065-071>073-077>080-030900-
SOUTHWEST LOWER MICHIGAN

CITY           SKY/WX    TMP DP  RH WIND       PRES   REMARKS
BATTLE CREEK   CLOUDY    35  30  82 CALM      30.28R
BENTON HARBOR  CLOUDY    37  27  67 W6        30.29S WCI  32
BIG RAPIDS     CLOUDY    36  30  79 W7        30.24S WCI  31
COLDWATER      CLOUDY    35  28  76 CALM      30.28R
HOLLAND        CLOUDY    37  29  72 W5        30.29R WCI  33
GRAND RAPIDS   CLOUDY    35  30  82 W7        30.28R WCI  29
KALAMAZOO      CLOUDY    36  29  75 CALM      30.28R
MARSHALL       CLOUDY    35  31  87 W3        30.27R
MOUNT PLEASANT CLOUDY    35  30  83 W8        30.23S WCI  28
STURGIS        CLOUDY    35  28  73 W3        30.28R
$$
MIZ016>042-030900-
NORTHERN LOWER MICHIGAN

CITY           SKY/WX    TMP DP  RH WIND       PRES   REMARKS
ALPENA         CLOUDY    37  32  82 W6        30.19R WCI  32
BEAVER ISLAND  CLOUDY    37  32  83 NW6       30.22R WCI  32
BELLAIRE       MIX PCPN  36  35  95 CALM      30.22S
CADILLAC       CLOUDY    34  32  94 W6        30.20S WCI  28
CHARLEVOIX     CLOUDY    39  33  79 NW8       30.24R WCI  33
GAYLORD        CLOUDY    35  32  88 W3        30.18R
HOUGHTON LAKE  CLOUDY    36  33  89 W9        30.21  WCI  29
OSCODA         CLOUDY    38  34  86 W7        30.19R WCI  33
PELLSTON       CLOUDY    36  33  89 NW5       30.20R WCI  32
TRAVERSE CITY  CLOUDY    38  35  89 SW3       30.22
LUDINGTON      CLOUDY    37  31  81 NW5       30.26S WCI  33
$$
MIZ007>008-015-030900-
EASTERN UPPER MICHIGAN

CITY           SKY/WX    TMP DP  RH WIND       PRES   REMARKS
KINROSS        MIX PCPN  32  32 100 W7        30.18R WCI  26
MACKINAC ISLAN CLOUDY    35  32  90 NW7       30.19R WCI  29
NEWBERRY       CLOUDY    33  32  97 W6        30.19S WCI  27
$$
MIZ004>006-011>014-085-030900-
CENTRAL UPPER MICHIGAN

CITY           SKY/WX    TMP DP  RH WIND       PRES   REMARKS
MANISTIQUE     CLOUDY    34  32  93 W6        30.22R WCI  29
$$
MIZ001>003-009>011-084-030900-
WESTERN UPPER MICHIGAN

CITY           SKY/WX    TMP DP  RH WIND       PRES   REMARKS
IRON MOUNTAIN  LGT SNOW  31  27  85 W3        30.22S FOG
HOUGHTON       LGT SNOW  32  29  88 CALM      30.21R FOG
COPPER HARBOR    N/A     35  27  72 N10       30.23R WCI  27
$$

ABBREVIATIONS USED IN REMARKS
   TC - TEMPERATURE IN CELSIUS
  WCI - WIND CHILL INDEX
   HX - HEAT INDEX
  VSB - VISIBILITY





USA.gov is the U.S. government's official web portal to all federal, state and local government web resources and services.